Regional Weather Roundup
Issued by NWS Austin/San Antonio, TX

Current Version | Previous Version | Text Only | Print | Product List | Glossary On
Versions: 1 2 3 4 5 6 7 8 9 10 11 12 13 14 15 16 17 18 19 20 21 22 23 24 25 26 27 28 29 30 31 32 33 34 35 36 37 38 39 40 41 42 43 44 45 46 47 48 49 50
000
ASUS44 KEWX 031901
RWREWX
SOUTH TEXAS REGIONAL WEATHER ROUNDUP
NATIONAL WEATHER SERVICE AUSTIN/SAN ANTONIO TX
200 PM CDT MON OCT 03 2022

NOTE: "FAIR" INDICATED FEW OR NO CLOUDS BELOW 12,000 FEET WITH NO
SIGNIFICANT WEATHER AND/OR OBSTRUCTIONS TO VISIBILITY.

* - THESE STATIONS ARE NOT NWS OR FAA STATIONS...AND ARE NOT SUBJECT
    TO NWS AND FAA QUALITY CONTROL.

TXZ171-172-183>190-032000-
TEXAS HILL COUNTRY AND EDWARDS PLATEAU

CITY           SKY/WX    TMP DP  RH WIND       PRES   REMARKS
JUNCTION       SUNNY     84  41  21 E7        30.16F
*LLANO         SUNNY     84  37  18 CALM      30.16F
BURNET         SUNNY     82  39  21 NE6       30.17F
*HORSESHOE BAY SUNNY     84  37  18 E6        30.15F
*LAGO VISTA      N/A     87  41  19 SE6       30.16F
*KERRVILLE     MOSUNNY   83  41  22 S5        30.15F
*FREDERICKSBRG SUNNY     81  39  22 E6        30.17F
*ROCKSPRINGS   SUNNY     77  45  31 S7G15     30.23F
*BOERNE        PTSUNNY   81  41  24 S7        30.15F
HONDO          MOSUNNY   85  47  26 MISG      30.13F
*UVALDE        MOSUNNY   82  50  33 S9        30.16F
DEL RIO        MOSUNNY   82  59  45 S15       30.12F
*LAUGHLIN AFB  MOSUNNY   81  56  42 SE10      30.11F
*SPOFFORD      MOSUNNY   80  57  45 N6        30.13F
CARRIZO SPRGS  PTSUNNY   81  59  47 E6        30.13F
*FAITH RANCH   SUNNY     84  52  32 VRB5G14   30.14F
$$

TXZ173-191>194-202-209-217>225-228-032000-
CENTRAL AND SOUTH CENTRAL TEXAS

CITY           SKY/WX    TMP DP  RH WIND       PRES   REMARKS
GEORGETOWN     SUNNY     84  40  21 NE6       30.16F
*TAYLOR        SUNNY     84  43  23 E8        30.14F
AUSTIN/BERGSTM MOSUNNY   83  42  23 N3        30.12F
AUSTIN/MABRY   SUNNY     85  43  22 CALM      30.14F
*PFLUGERVILLE  SUNNY     84  39  20 E3        30.12F
SAN MARCOS     MOSUNNY   86  43  22 S6        30.16S
NEW BRAUNFELS  PTSUNNY   84  42  22 CALM      30.11F
*RANDOLPH AFB  PTSUNNY   85  38  19 E3        30.10F
*SEGUIN        CLOUDY    84  40  20 W5        30.09F
SAN ANTONIO    PTSUNNY   83  43  24 VRB3      30.13F
STINSON FIELD  PTSUNNY   86  44  23 NE3       30.10F
*KELLY FIELD   NOT AVBL
*PLEASANTON    PTSUNNY   85  45  24 CALM      30.13F
*KENEDY        PTSUNNY   84  45  25 NE3       30.13F
*LA GRANGE     NOT AVBL
*GIDDINGS      SUNNY     83  42  23 CALM      30.12F
*GONZALES      SUNNY     87  44  22 S5        30.12F
$$

TXZ163>164-176>182-195>201-210>213-226-227-235-032000-
SOUTHEAST TEXAS

CITY           SKY/WX    TMP DP  RH WIND       PRES   REMARKS
COLLEGE STN    SUNNY     85  46  25 VRB6      30.12F
*BRYAN         SUNNY     85  45  25 N7        30.15F
*CALDWELL      SUNNY     83  45  26 SE6       30.14F
*CROCKETT      SUNNY     86  39  19 VRB6G15   30.12F
*BRENHAM       SUNNY     85  44  24 CALM        N/A
HUNTSVILLE     SUNNY     87  45  23 VRB7      30.11F
CONROE         SUNNY     85  48  27 VRB7      30.11F
HOUSTON BUSH   MOSUNNY   85  49  28 N6        30.10F
HOUSTON HOBBY  PTSUNNY   86  45  23 E8        30.09F
*HOUSTON SW AP NOT AVBL
PEARLAND       MOSUNNY   86  45  23 N9        30.10F
HOUSTON HOOKS  MOSUNNY   85  48  27 CALM      30.10F
ELLINGTON FLD  SUNNY     82  48  30 N6        30.08F
SUGAR LAND     MOSUNNY   84  46  26 NE6       30.09F
*HOUSTON EXEC  MOSUNNY   84  46  26 VRB3      30.11F
*CLEVELAND MUN NOT AVBL
*WHARTON       MOSUNNY   85  46  25 N8        30.10F
*COLUMBUS      FAIR      85  46  25 NE5       30.12F
*EAGLE LAKE    SUNNY     85  45  24 CALM      30.11F
$$

TXZ214>216-236>238-032000-
THE UPPER TEXAS COAST

CITY           SKY/WX    TMP DP  RH WIND       PRES   REMARKS
*ORANGE        SUNNY     88  45  22 N3        30.11F
PORT ARTHUR    SUNNY     86  50  28 CALM      30.08F
GALVESTON      MOSUNNY   82  60  47 N9        30.10F
ANGLETON       MOSUNNY   86  47  25 MISG      30.09F
*BAY CITY      MOSUNNY   83  52  34 NE5       30.10F
PALACIOS       MOSUNNY   85  52  32 VRB3      30.08F
$$

TXZ229>234-239>247-032000-
TEXAS COASTAL BEND AND RIO GRANDE PLAINS

CITY           SKY/WX    TMP DP  RH WIND       PRES   REMARKS
VICTORIA       MOSUNNY   88  48  25 NE8       30.09F
*BEEVILLE      MOSUNNY   85  41  21 NE5       30.10F
ROCKPORT       PTSUNNY   83  61  47 E9        30.10F
*PORT ARANSAS  MOSUNNY  N/A N/A N/A NE9       30.12F
*PORT LAVACA   MOSUNNY   86  44  22 E5        30.10F
*INGLESIDE     NOT AVBL
CORPUS CHRISTI PTSUNNY   87  59  38 NE3       30.09F
CORPUS NAS     NOT AVBL
*ROBSTOWN      PTSUNNY   84  56  38 MISG      30.11F
ALICE          PTSUNNY   84  57  39 VRB3      30.09F
KINGSVILLE NAS PTSUNNY   83  59  44 CALM      30.09F
COTULLA        PTSUNNY   85  50  29 CALM      30.12F
LAREDO         PTSUNNY   81  61  50 E6        30.11F
$$

TXZ248>255-032000-
DEEP SOUTH TEXAS

CITY           SKY/WX    TMP DP  RH WIND       PRES   REMARKS
BROWNSVILLE    MOSUNNY   87  61  41 NE7       30.06F
PORT ISABEL    MOSUNNY   85  62  46 NE7G17    30.07F
HARLINGEN      MOSUNNY   89  58  34 NE8       30.06F
*HEBBRONVILLE  MOSUNNY   80  58  48 E5        30.14F
MCALLEN        MOSUNNY   88  58  36 VRB6      30.07F
*WESLACO       MOSUNNY   85  57  37 E5        30.08
FALFURRIAS     PTSUNNY   82  60  47 VRB3      30.08F
EDINBURG       MOSUNNY   87  59  38 N6        30.09F
*ZAPATA        MOSUNNY   84  62  48 CALM      30.11F
$$

TXZ213>215-236>238-242>244-246-247-251-254-255-032000-
CMAN STATIONS

STATION/POSITION TIME  TEMP    WIND        PRES    WAVE
                       AIR SEA DIR/SP/G            HT/PER
                 (UTC) (F)     (DEG/KT/KT) (MB)    (FT/S)
SEA RIM ST PARK  1800   80      10/  6/  7 1019.6
NORTH JETTY/GLS  1818   76 78   80/  8/  9 1018.2
EAGLE POINT      1824   75 75   40/  4/  5 1019.0
MORGANS POINT    1824   83 78  130/  4/  6 1018.9
MISSION/ARANSAS  1800   81      70/  2     1020.0
PORT O`CONNOR    1830   77 84  360/  6/  7 1019.0
PORT ARANSAS     1800   78      30/ 10/ 11   N/A
BAFFIN BAY       1830   78 80  350/ 12/ 14 1019.4
PORT ISABEL      1830   81 83   40/  8/ 12 1018.1
$$



USA.gov is the U.S. government's official web portal to all federal, state and local government web resources and services.